Regional Weather Roundup
Issued by NWS Charleston, SC

Current Version | Previous Version | Graphics & Text | Print | Product List | Glossary On
Versions: 1 2 3 4 5 6 7 8 9 10 11 12 13 14 15 16 17 18 19 20 21 22 23 24 25 26 27 28 29 30 31 32 33 34 35 36 37 38 39 40 41 42 43 44 45 46 47 48 49 50
000
ASUS42 KCHS 022027
RWRCHS

REGIONAL WEATHER ROUNDUP
NATIONAL WEATHER SERVICE CHARLESTON SC
400 PM EDT SUN AUG 02 2015

NOTE: "FAIR" INDICATES FEW OR NO CLOUDS BELOW 12,000 FEET WITH NO
SIGNIFICANT WEATHER AND/OR OBSTRUCTIONS TO VISIBILITY.

NOT ALL STATIONS ARE QUALITY CONTROLLED BY THE NATIONAL
WEATHER SERVICE. USE DATA WITH CAUTION...ESPECIALLY
DEWPOINT OBSERVATIONS.

SCZ027-030-031-034>040-042>050-022100-
...SOUTHEAST SOUTH CAROLINA...

CITY           SKY/WX    TMP DP  RH WIND       PRES   REMARKS
N CHARLESTON   CLOUDY    80  72  76 SE8       29.92F
WATERFRONT PRK   N/A     78  73  84 SE12      29.91F
MOUNT PLEASANT LGT RAIN  81  75  83 S8        29.92F
JOHNS ISLAND   MOCLDY    79  73  83 E8        29.92F
PINOPOLIS      NOT AVBL
MONCKS CORNER  FAIR      81  70  69 S8        29.91F
SUMMERVILLE    FAIR      84  72  65 SE6       29.92F
BEAUFORT MCAS  PTSUNNY   83  78  85 E8        29.91F HX  93
BEAUFORT ARPT  FAIR      84  77  79 E8        29.91S HX  94
HILTON HEAD IS PTSUNNY   86  75  70 SE6       29.92F HX  95
WALTERBORO     PTCLDY    88  73  62 E12       29.92F HX  96
ALLENDALE      FAIR      86  70  58 SE8       29.89F HX  90

...SOUTHERN MIDLANDS AND PEE DEE...

CITY           SKY/WX    TMP DP  RH WIND       PRES   REMARKS
GEORGETOWN     NOT AVBL
KINGSTREE      NOT AVBL
ORANGEBURG     MOSUNNY   90  69  50 SE15      29.90F HX  94
BARNWELL       FAIR      90  73  58 SE12      29.89F HX  98
AIKEN          MOCLDY    95  59  30 SE10      29.91F HX  94
MANNING        HVY RAIN  81  68  65 S7        29.91S
COLUMBIA       MOSUNNY   97  63  32 E12       29.88F HX  98
SUMTER         PTSUNNY   86  69  57 SE16G22   29.90R
FLORENCE       PTSUNNY   94  60  32 NE9       29.90S HX  94
MYRTLE BEACH   PTSUNNY   88  73  62 S14       29.95S HX  96
N MYRTLE BEACH PTSUNNY   83  74  74 S10       29.95S

$$

GAZ063-065-086>088-099>101-113>116-118-119-134>141-150-022100-
...SOUTHEAST GEORGIA...

CITY           SKY/WX    TMP DP  RH WIND       PRES   REMARKS
SAVANNAH ARPT  LGT RAIN  79  75  87 SE7       29.91S FOG
HUNTER AAF     MOSUNNY   79  79 100 E8        29.87F
FORT STEWART   NOT AVBL
STATESBORO     SUNNY     86  77  72 E8        29.88F HX  97
SYLVANIA       CLEAR     88  76  67 S9        29.89F HX  98
CLAXTON        NOT AVBL

...CSRA...CENTRAL AND FAR SOUTHEAST GEORGIA...

CITY           SKY/WX    TMP DP  RH WIND       PRES   REMARKS
THOMSON        PTSUNNY   82  73  76 N23G33    29.94R
AUGUSTA-BUSH   MOSUNNY   94  68  42 S10       29.86F HX  98
AUGUSTA-DANIEL MOSUNNY   94  68  42 S10       29.89F HX  98
SWAINSBORO     FAIR      91  73  55 SE9       29.89S HX 100
VIDALIA        PTSUNNY   82  73  74 NE6       29.88S
EASTMAN        FAIR      92  74  56 SE9       29.89F HX 102
HAZLEHURST     MOCLDY    90  74  57 E5        29.85F HX  99
ALMA           PTSUNNY   87  75  67 S7        29.86F HX  96
WAYCROSS       CLOUDY    85  78  78 SE9       29.87S HX  97
JESUP          MOCLDY    88  77  70 S9        29.88S HX 100
BAXLEY         FAIR      91  73  55 E6        29.86S HX 100
BRUNSWICK      CLOUDY    82  75  78 S6        29.90R THUNDER
SAINT SIMONS   CLOUDY    82  74  76 SE13G20   29.88F

$$

SCZ027-028-034-036>038-045-046-048>050-GAZ119-141-022100-
...LAKE AND SUPPLEMENTAL COASTAL OBSERVATIONS...

STATION/POSITION TIME  TEMP    WIND        PRES    WAVE   SWELL
                       AIR SEA DIR/SP/G            HT/PER HT/PER/DIR
                 (UTC) (F)     (DEG/KT/KT) (MB)    (FT/S) (FT/S/D)
UPR LAKE MARION  NOT AVBL
WINYAH BAY       1945   82     150/  9     1013.0S
LAKE MURRAY      1900   93      CALM  /  5 1011.9F
ACE BASIN NERRS  1915   82     110/  1     1014.0S
FORT PULASKI     2000   81 86  120/  6/  9 1013.1F
SAPELO ISLAND    2000   85     140/  7     1012.0F

$$

ANZ835-935-AMZ111-154-330-350-352-354-370-450-454-472-022100-
...C-MAN AND BUOY OBSERVATIONS...

STATION/POSITION TIME  TEMP    WIND        PRES    WAVE   SWELL
                       AIR SEA DIR/SP/G            HT/PER HT/PER/DIR
                 (UTC) (F)     (DEG/KT/KT) (MB)    (FT/S) (FT/S/D)
BUOY 41004       1950   79 83  190/  2/  4 1013.6F   3/ 6   3/ 6
BUOY 41008       1950   81 84  180/ 10/ 12 1012.5F   3/ 6   3/150/ 6
FOLLY BEACH CMAN 2000   77     120/ 12/ 13 1013.3F
CAPERS NEARSHORE 1908   78     180/ 14/ 17 1014.5F
FRIPP NEARSHORE  1900   83     130/ 10/ 12 1013.5F


STATION/POSITION TIME  TEMP    WIND        PRES    WAVE   SWELL
                       AIR SEA DIR/SP/G            HT/PER HT/PER/DIR
                 (UTC) (F)     (DEG/KT/KT) (MB)    (FT/S) (FT/S/D)
5E ST. MARYS GA  1921      83                N/A     3/ 6   2/110/11
FRYING PAN BUOY  1950   81 83  170/ 16/ 17 1014.7F   5/ 7   2/130/10
BUOY 41025       1950   83 86  190/ 17/ 19 1013.9F   3/12   2/120/12
CAPE LOOKOUT NC  2000   83     170/ 15/ 17 1013.6F
BUOY 41002       1950   80 81  240/  6/ 12 1016.7F   6/ 8   7/270/ 8
BUOY 41010       1920   83 84  170/ 14/ 16 1015.6F
ST AUGUSTINE FL  2000   86 82  220/ 12/ 17 1012.6S


$$



USA.gov is the U.S. government's official web portal to all federal, state and local government web resources and services.